EW2910 Weather Reports


Display with metric or nautical units.
time (UTC)temp
F
wind
direction
speed
MPH
gust
MPH
rain 1hr
in
rain 24hr
in
rain mn
in
humidity
%
barometer
mb
20260509114559 72 0 0.0 0.0 0.00 0.00 0.00 96 1013.5
20260509113058 71 0 0.0 0.0 0.00 0.00 0.00 96 1013.3
20260509111559 71 0 0.0 0.0 0.00 0.00 0.00 96 1013.0
20260509110057 70 0 0.0 0.0 0.00 0.00 0.00 96 1012.9
20260509104603 70 0 0.0 0.0 0.00 0.00 0.00 96 1012.5
20260509103106 70 0 0.0 0.0 0.00 0.00 0.00 96 1012.5
20260509101620 70 0 0.0 0.0 0.00 0.00 0.00 96 1012.7
20260509094602 70 0 0.0 0.0 0.00 0.00 0.00 96 1012.4
20260509093100 70 0 0.0 0.0 0.00 0.00 0.00 96 1012.6
20260509091559 71 0 0.0 0.0 0.00 0.00 0.00 95 1012.7
20260509090108 71 0 0.0 0.0 0.00 0.00 0.00 95 1012.7
20260509084605 71 0 0.0 0.0 0.00 0.00 0.00 95 1012.7
20260509083111 72 0 0.0 4.0 0.00 0.00 0.00 95 1012.9
20260509081559 72 0 0.0 1.0 0.00 0.00 0.00 95 1013.0
20260509080100 72 0 0.0 0.0 0.00 0.00 0.00 94 1013.0
20260509074612 72 251 0.0 1.0 0.00 0.00 0.00 94 1012.9
20260509073108 72 0 0.0 2.0 0.00 0.00 0.00 94 1012.9
20260509071602 72 288 1.0 3.0 0.00 0.00 0.00 94 1013.0
20260509070059 72 0 0.0 2.0 0.00 0.00 0.00 93 1013.4
20260509064601 73 0 0.0 1.0 0.00 0.00 0.00 93 1013.6
20260509063104 73 0 0.0 0.0 0.00 0.00 0.00 92 1013.5
20260509061558 73 0 0.0 2.0 0.00 0.00 0.00 92 1013.8
20260509060117 73 0 0.0 1.0 0.00 0.00 0.00 92 1014.0
20260509054556 73 0 0.0 0.0 0.00 0.00 0.00 92 1014.2
20260509053114 74 0 0.0 2.0 0.00 0.00 0.00 91 1014.2
20260509051609 74 0 0.0 3.0 0.00 0.00 0.00 91 1014.4
20260509050106 75 0 0.0 0.0 0.00 0.00 0.00 92 1014.5
20260509044604 75 0 0.0 3.0 0.00 0.00 0.00 92 1014.5
20260509043100 76 334 1.0 4.0 0.00 0.00 0.00 91 1014.6
20260509041558 76 345 1.0 4.0 0.00 0.00 0.00 91 1014.6
20260509040109 76 20 3.0 5.0 0.00 0.00 0.00 90 1014.7
20260509034603 76 326 1.0 6.0 0.00 0.00 0.00 90 1014.6
20260509033131 77 347 4.0 8.0 0.00 0.00 0.00 89 1014.6
20260509031558 77 20 4.0 8.0 0.00 0.00 0.00 88 1014.6
20260509030059 78 23 3.0 8.0 0.00 0.00 0.00 87 1014.5
20260509024607 79 4 3.0 6.0 0.00 0.00 0.00 85 1014.5
20260509023057 80 26 4.0 12.0 0.00 0.00 0.00 82 1014.5
20260509021600 80 329 5.0 10.0 0.00 0.00 0.00 77 1014.2
20260509020111 81 327 6.0 11.0 0.00 0.00 0.00 74 1014.0
20260509014602 82 348 5.0 9.0 0.00 0.00 0.00 71 1014.1
20260509013106 82 349 1.0 6.0 0.00 0.00 0.00 68 1014.0
20260509011604 83 319 2.0 6.0 0.00 0.00 0.00 68 1013.7
20260509010100 83 298 3.0 7.0 0.00 0.00 0.00 67 1013.4
20260509004600 84 266 3.0 8.0 0.00 0.00 0.00 65 1013.0
20260509003103 85 232 3.0 6.0 0.00 0.00 0.00 63 1012.9
20260509001558 87 292 3.0 8.0 0.00 0.00 0.00 62 1012.4
20260509000104 88 333 0.0 3.0 0.00 0.00 0.00 60 1012.2
20260508234604 89 0 0.0 2.0 0.00 0.00 0.00 59 1011.7
20260508233119 90 0 0.0 3.0 0.00 0.00 0.00 58 1011.7
20260508231603 91 236 0.0 2.0 0.00 0.00 0.00 53 1011.4
20260508230058 92 0 0.0 3.0 0.00 0.00 0.00 52 1011.2
20260508224558 92 0 0.0 4.0 0.00 0.00 0.00 52 1011.2
20260508223100 93 0 0.0 5.0 0.00 0.00 0.00 50 1011.1
20260508221600 95 0 1.0 6.0 0.00 0.00 0.00 48 1011.0
20260508214557 95 332 1.0 6.0 0.00 0.00 0.00 49 1011.0
20260508213100 95 207 0.0 2.0 0.00 0.00 0.00 50 1011.0
20260508211600 94 218 1.0 7.0 0.00 0.00 0.00 52 1011.1
20260508210101 94 0 0.0 5.0 0.00 0.00 0.00 51 1011.1
20260508204600 95 181 0.0 6.0 0.00 0.00 0.00 51 1011.3
20260508203058 95 228 2.0 6.0 0.00 0.00 0.00 50 1011.4
20260508201559 95 102 1.0 8.0 0.00 0.00 0.00 52 1011.8
20260508200100 94 111 1.0 5.0 0.00 0.00 0.00 53 1011.9
20260508194609 93 318 0.0 7.0 0.00 0.00 0.00 53 1012.1
20260508193121 93 0 0.0 6.0 0.00 0.00 0.00 53 1012.3
20260508191608 94 345 1.0 10.0 0.00 0.00 0.00 52 1012.5
20260508190114 95 217 1.0 8.0 0.00 0.00 0.00 51 1012.8
20260508184613 92 0 0.0 7.0 0.00 0.00 0.00 56 1012.9
20260508183101 92 0 0.0 4.0 0.00 0.00 0.00 57 1013.4
20260508181604 91 311 1.0 5.0 0.00 0.00 0.00 59 1013.4
20260508174557 91 0 0.0 10.0 0.00 0.00 0.00 58 1013.9
20260508173059 91 41 2.0 6.0 0.00 0.00 0.00 58 1014.1
20260508171559 92 297 2.0 6.0 0.00 0.00 0.00 58 1014.3
20260508170104 90 0 1.0 7.0 0.00 0.00 0.00 59 1014.4
20260508164559 89 358 0.0 7.0 0.00 0.00 0.00 62 1014.8
20260508163106 89 340 3.0 7.0 0.00 0.00 0.00 61 1015.1
20260508161601 87 323 5.0 10.0 0.00 0.00 0.00 67 1015.4
20260508160058 88 0 2.0 8.0 0.00 0.00 0.00 65 1015.6
20260508154557 88 213 1.0 6.0 0.00 0.00 0.00 67 1015.7
20260508153107 86 0 2.0 10.0 0.00 0.00 0.00 70 1015.8
20260508151559 85 306 4.0 8.0 0.00 0.00 0.00 73 1016.0
20260508144559 84 341 3.0 8.0 0.00 0.00 0.00 75 1016.1
20260508143118 84 338 1.0 11.0 0.00 0.00 0.00 77 1015.9
20260508141605 83 0 1.0 10.0 0.00 0.00 0.00 79 1015.9
20260508140118 83 238 2.0 6.0 0.00 0.00 0.00 82 1016.0
20260508134558 82 341 2.0 8.0 0.00 0.00 0.00 83 1016.0
20260508133105 80 340 5.0 10.0 0.00 0.00 0.00 87 1015.9
20260508131603 79 284 1.0 8.0 0.00 0.00 0.00 89 1016.0
20260508130100 78 277 2.0 5.0 0.00 0.00 0.00 90 1016.0
20260508124604 77 0 0.0 5.0 0.00 0.00 0.00 93 1016.0
20260508123057 75 284 1.0 4.0 0.00 0.00 0.00 94 1015.7
20260508121557 74 273 0.0 4.0 0.00 0.00 0.00 95 1015.7
20260508120113 73 293 1.0 4.0 0.00 0.00 0.00 96 1015.4